GFSNIL_sfc_thetae_000.txt.gz
Theta_e
273 273 273 273 273 272 273 274 275 275 275 276 276 276 276 275 276 278 277 277 280 284
271 271 271 271 272 272 273 274 274 275 274 274 275 275 275 274 274 274 275 275 276 278
270 270 270 270 270 271 272 272 273 273 273 273 274 274 274 274 274 273 274 276 276 279
270 270 270 269 270 270 271 271 271 272 272 272 272 273 273 273 273 272 273 273 273 275
269 269 268 268 269 270 270 270 270 270 270 270 270 271 271 271 272 271 271 272 273 274
267 267 267 268 268 269 269 269 269 269 268 268 269 269 270 270 270 271 271 271 271 273
267 267 267 267 267 267 267 266 266 267 267 267 267 268 269 269 270 270 271 272 272 273
266 266 266 266 266 266 265 265 265 265 265 265 266 267 267 269 270 270 270 271 272 273
265 265 264 264 264 263 263 263 263 264 264 264 266 270 272 273 272 272 272 273 274 275
264 262 262 262 262 261 261 262 263 263 263 264 265 269 272 274 273 273 273 273 273 274
262 261 261 260 259 260 261 262 262 262 263 264 265 270 272 273 273 273 274 274 274 274
260 258 258 256 258 259 261 260 260 263 262 262 263 269 272 273 273 274 275 275 274 274
259 256 256 257 257 260 259 261 262 262 262 263 263 269 272 273 272 273 274 275 275 276
258 256 256 257 258 258 259 260 260 262 263 265 266 267 271 274 272 271 271 273 276 275

GFSNIL_sfc_thetae_003.txt.gz
Theta_e
274 274 274 274 273 273 273 274 275 276 276 277 277 278 278 278 278 279 279 278 279 280
273 272 272 272 272 272 273 274 274 275 274 275 276 276 276 277 277 277 278 278 278 278
271 271 271 271 271 271 272 272 272 273 273 274 274 275 275 275 276 276 277 277 277 277
270 270 270 270 270 271 271 271 271 271 271 272 272 273 273 273 274 274 275 275 275 276
269 269 269 269 270 270 270 270 270 270 270 270 270 270 270 270 271 271 272 273 274 274
268 268 268 268 268 269 268 268 268 268 267 267 268 267 268 268 269 270 270 272 272 273
267 267 267 267 267 267 267 266 266 266 266 266 266 266 266 266 267 268 269 270 272 272
267 267 267 266 267 266 266 265 265 264 264 265 265 265 266 268 269 270 271 272 272 273
266 266 265 265 265 264 264 264 263 264 264 263 265 268 270 271 270 271 271 271 272 274
264 263 263 263 263 262 262 262 263 263 263 263 264 268 271 272 271 270 271 271 272 273
263 261 262 261 261 261 262 262 262 262 262 263 265 269 271 272 271 271 272 273 274 274
261 259 259 257 259 260 261 261 260 262 263 262 263 268 271 272 270 270 271 273 274 275
260 257 257 258 258 260 259 260 262 262 262 263 264 268 271 272 271 269 270 271 273 275
259 257 256 257 258 258 258 260 259 261 263 265 266 267 271 273 271 270 270 271 272 274

GFSNIL_sfc_thetae_006.txt.gz
Theta_e
282 281 281 280 280 279 279 280 281 280 280 280 280 280 281 281 281 281 282 281 281 282
281 279 279 279 278 278 279 278 278 278 278 279 279 279 279 279 279 280 280 280 281 281
279 278 278 277 277 277 278 277 277 277 277 277 277 277 277 277 278 278 279 279 279 280
277 277 276 276 276 276 276 276 275 275 275 275 275 276 275 275 275 275 275 276 277 277
276 275 275 275 275 275 274 275 274 274 273 273 273 273 273 272 273 272 272 273 273 274
275 274 274 274 274 273 273 273 273 272 272 271 271 271 271 271 270 270 270 271 271 272
274 273 273 273 272 272 272 271 271 271 270 270 270 270 270 270 270 271 271 272 272 272
273 272 272 271 271 271 270 270 270 269 269 270 269 269 270 270 271 271 272 272 272 273
271 271 270 270 269 269 269 269 268 268 269 269 269 271 272 273 272 272 271 272 272 273
270 269 268 268 267 267 267 267 267 268 268 268 268 271 273 273 272 272 273 273 273 273
268 267 266 266 266 266 267 267 267 267 266 267 268 271 272 273 273 272 273 273 273 273
267 265 265 263 264 265 266 266 265 266 266 266 266 269 272 273 272 272 273 273 274 273
266 263 263 264 264 265 264 265 266 266 266 266 266 269 272 273 272 271 272 273 274 275
264 263 263 262 264 263 263 264 263 264 266 268 270 270 273 274 273 273 272 272 272 273

GFSNIL_sfc_thetae_009.txt.gz
Theta_e
288 287 287 286 285 284 283 283 284 282 282 282 282 281 281 281 282 282 282 281 282 282
286 286 284 284 283 283 282 281 281 281 280 280 280 280 280 280 280 280 281 281 281 281
285 284 284 283 281 281 281 281 280 279 279 279 278 278 278 278 279 278 279 279 279 279
283 282 282 280 280 280 280 279 278 278 277 277 277 277 276 276 276 276 276 276 277 276
282 280 279 279 279 279 278 278 277 276 276 275 275 275 275 274 274 273 273 273 274 273
280 278 278 278 278 277 276 276 276 275 274 274 274 273 273 273 272 272 272 273 273 273
278 277 278 277 276 276 275 274 274 274 273 273 272 272 272 272 272 272 273 274 274 274
278 277 277 275 275 274 274 273 273 272 272 272 272 272 272 272 272 273 273 274 274 274
276 275 275 274 273 272 272 272 271 271 271 271 271 274 274 274 273 273 272 272 273 274
274 273 273 272 271 270 270 271 270 270 271 270 271 273 275 275 273 273 273 273 273 273
273 271 271 270 269 269 269 269 270 270 269 269 270 273 274 274 273 273 273 273 273 273
271 270 269 268 268 269 269 269 269 269 269 268 267 271 273 274 273 273 273 274 274 274
270 269 268 268 268 269 268 268 268 268 268 268 267 271 274 275 273 272 273 274 275 275
268 267 267 267 267 266 266 267 266 266 269 270 271 271 274 275 274 273 273 272 271 272

GFSNIL_sfc_thetae_012.txt.gz
Theta_e
286 286 284 283 282 281 280 280 280 279 279 279 279 279 279 278 278 279 279 278 279 279
285 283 283 281 280 280 279 280 278 278 277 278 278 278 277 277 277 278 278 278 278 278
284 282 281 280 279 278 278 277 277 277 277 277 277 277 276 276 277 277 277 277 277 277
282 281 279 279 278 277 277 277 276 276 276 276 276 276 275 275 275 275 275 275 275 275
280 279 278 277 276 277 276 276 276 275 275 275 274 274 274 273 274 273 273 273 273 272
279 278 277 276 276 276 275 275 275 274 274 273 274 273 273 273 272 272 272 272 272 272
278 277 276 276 275 275 274 274 273 273 273 273 272 272 272 272 272 272 272 273 273 273
277 276 276 275 275 274 273 273 273 272 272 272 271 272 271 272 272 272 272 273 274 274
276 275 275 274 274 273 273 272 272 272 271 270 271 274 276 276 273 274 273 272 273 274
275 274 274 273 272 272 271 272 271 271 271 271 271 274 276 276 275 273 272 272 273 273
274 273 273 272 271 271 271 271 270 270 271 270 270 274 275 275 274 273 273 273 273 274
273 273 272 271 270 270 270 270 270 270 269 269 269 272 273 275 273 273 273 274 274 274
273 272 271 270 270 270 270 270 270 269 270 269 267 271 274 275 273 271 272 274 274 274
271 270 271 269 269 269 268 269 268 268 268 269 270 270 273 276 274 272 273 271 271 271

GFSNIL_sfc_thetae_015.txt.gz
Theta_e
286 286 285 284 284 284 283 282 281 280 279 279 279 278 278 278 278 278 279 278 279 279
286 286 285 283 283 283 282 281 280 279 278 278 278 278 277 277 277 278 278 278 278 278
286 286 285 282 282 280 280 279 278 277 277 277 277 277 276 276 277 276 277 277 277 277
284 284 283 282 281 280 279 278 277 277 276 276 276 276 275 275 275 275 275 275 275 275
282 281 281 280 279 278 278 277 277 276 276 276 275 275 274 274 274 274 274 274 274 273
281 280 280 279 277 277 276 276 276 275 275 274 274 274 274 274 273 273 273 273 272 272
281 280 279 278 277 277 276 275 275 274 273 273 273 273 273 273 272 272 272 272 272 273
281 280 278 276 276 276 275 274 274 273 273 273 273 273 272 272 272 272 272 273 274 274
279 278 276 276 276 275 274 273 273 273 272 271 272 275 277 275 273 273 273 273 274 274
277 276 276 276 275 274 273 273 273 272 272 272 272 277 278 278 276 275 274 273 273 273
277 276 275 275 274 273 273 272 272 272 271 272 272 276 277 277 275 274 274 274 274 273
276 276 274 273 273 272 272 271 272 272 271 271 271 276 276 276 274 274 274 274 275 274
277 275 274 273 272 272 271 271 271 270 270 270 268 274 275 276 273 269 272 274 275 275
275 274 274 272 272 271 271 271 270 269 269 268 268 270 275 277 274 272 271 273 271 272

GFSNIL_sfc_thetae_021.txt.gz
Theta_e
289 288 288 286 287 286 286 285 283 283 282 280 280 280 280 280 279 279 279 278 278 279
288 288 287 285 285 286 285 285 282 283 281 280 280 280 279 279 278 278 278 278 278 278
288 287 286 283 284 285 284 284 282 282 281 280 280 279 279 278 278 277 277 278 277 277
286 287 286 284 284 284 283 283 282 282 281 280 279 279 278 277 277 276 276 276 277 276
286 286 285 285 284 284 283 282 282 281 281 280 279 278 278 276 276 275 275 275 275 275
285 284 285 285 284 283 282 282 281 280 280 279 279 278 277 277 276 275 275 275 274 274
285 284 285 285 284 282 282 281 280 280 280 279 278 277 276 276 275 274 274 274 274 274
285 285 285 284 283 282 282 281 280 279 278 278 277 276 276 275 274 274 273 273 274 273
285 284 283 283 282 281 280 280 279 278 277 276 276 281 281 277 274 274 273 272 273 274
283 283 283 282 281 280 279 279 278 277 276 275 276 282 282 280 275 274 273 273 274 274
281 282 280 279 279 279 278 277 277 277 276 276 276 283 283 280 275 274 274 275 275 274
279 280 278 278 277 277 277 276 277 277 276 276 275 283 283 280 275 275 274 275 275 275
277 276 277 278 276 277 277 276 277 276 276 276 275 283 283 281 275 274 274 274 275 276
275 276 276 274 274 275 275 275 274 274 274 275 275 280 283 283 276 274 273 273 273 274

GFSNIL_sfc_thetae_024.txt.gz
Theta_e
289 288 288 286 287 287 287 287 286 284 284 283 282 281 281 281 281 280 280 279 279 279
288 287 287 285 285 286 286 286 284 284 283 282 282 281 280 280 280 280 280 279 279 278
288 288 286 284 284 285 285 284 283 283 283 282 281 281 280 280 279 279 279 279 278 278
286 285 284 284 285 285 285 284 283 283 283 282 281 281 280 280 279 279 278 278 278 277
284 283 284 285 284 285 284 284 284 283 282 282 281 281 280 279 279 278 277 277 277 276
284 283 285 285 285 284 284 283 283 283 282 282 281 281 281 280 279 278 278 277 277 276
283 284 285 286 284 283 284 283 283 283 282 282 281 280 280 279 278 278 277 277 276 276
285 285 285 284 283 283 283 283 283 282 282 281 281 280 279 279 278 277 276 276 276 275
285 284 283 283 283 282 281 282 282 281 281 280 280 284 284 281 278 277 275 274 274 274
284 283 283 282 281 282 281 281 281 281 280 279 280 284 285 284 278 277 276 275 274 274
283 282 282 280 281 281 281 281 280 280 280 280 279 284 286 284 278 277 276 275 275 274
281 281 281 280 279 280 280 279 280 280 280 279 279 283 286 284 277 276 275 275 275 275
281 279 278 279 278 279 279 279 279 279 279 278 278 282 286 284 276 274 274 275 276 277
280 281 279 277 274 274 277 277 277 276 276 277 277 278 285 285 276 274 274 274 274 275